Meteo Giornale » Osservazioni meteo Stati Uniti (USA) » Janesville-Rock Co
ore: 11:45 - Osservazioni Meteo Janesville-Rock Co
Lat. 42° 37' N Lon. 89° 2' W Alt. 246 metri s.l.m.
29 °C
Molto Nuvoloso
Temp. 24 Ore
21 °C
30 °C
Sud-Ovest
13 Km/h
Dew point 25 °C
Umidità 79 %
Visibilità 10 Km
Il sole sorge alle ore 06:21
Il sole tramonta alle ore 19:30
| Data e Ora | Cielo e Fenomeni | T °C | DP °C | Um. % | Pres. hPa | Vis. km | Vento km/h | |
|---|---|---|---|---|---|---|---|---|
| Oggi h: 11:45 | Molto Nuvoloso | 29 | 25 | 79 | 1015 | 10 | SO 13 | |
| Oggi h: 10:45 | Foschia | 28 | 25 | 83 | 1015 | 10 | N 0 | |
| Oggi h: 09:45 | Foschia | 27 | 24 | 83 | 1015 | 10 | O/NO 7.4 | |
| Oggi h: 08:45 | Foschia | 25 | 23 | 88 | 1015 | 10 | O/SO 7.4 | |
| Oggi h: 07:45 | Foschia | 23 | 23 | 100 | 1015 | 10 | N 5.5 | |
| Oggi h: 06:45 | Foschia | 22 | 22 | 100 | 1014 | 8 | N 5.5 | |
| Oggi h: 05:45 | Foschia | 21 | 21 | 100 | 1014 | 5 | N 5.5 | |
| Oggi h: 05:15 | Foschia | 21 | 20 | 94 | 1014 | 8 | N 0 | |
| Oggi h: 04:55 | Sereno | 21 | 21 | 100 | 1014 | 11 | N 0 | |
| Oggi h: 04:35 | Sereno | 21 | 21 | 100 | 1014 | 11 | N 0 | |
| Oggi h: 04:15 | Foschia | 21 | 21 | 100 | 1014 | 6 | N 0 | |
| Oggi h: 03:55 | Nebbia | 21 | 21 | 100 | 1014 | 2 | N 0 | |
| Oggi h: 03:35 | Foschia | 22 | 21 | 94 | 1014 | 6 | N 0 | |
| Oggi h: 03:15 | Sereno | 22 | 21 | 94 | 1014 | 11 | N 0 | |
| Oggi h: 02:55 | Sereno | 22 | 21 | 94 | 1014 | 11 | N 0 | |
| Oggi h: 02:35 | Foschia | 21 | 21 | 100 | 1013 | 8 | N 0 | |
| Oggi h: 02:15 | Nuvoloso | 22 | 21 | 94 | 1014 | 10 | N 0 | |
| Oggi h: 01:55 | Sereno | 22 | 21 | 94 | 1013 | 10 | N 0 | |
| Oggi h: 01:35 | Sereno | 22 | 22 | 100 | 1014 | 10 | N 5.5 | |
| Oggi h: 01:15 | Sereno | 23 | 22 | 94 | 1014 | 10 | N 0 | |
| Oggi h: 00:55 | Sereno | 23 | 22 | 94 | 1014 | 10 | N 0 | |
| Oggi h: 00:35 | Sereno | 23 | 22 | 94 | 1014 | 10 | N 0 | |
| Oggi h: 00:15 | Sereno | 23 | 21 | 88 | 1014 | 10 | N 0 | |
| Ieri h: 23:55 | Sereno | 23 | 22 | 94 | 1014 | 10 | N 0 | |
| Ieri h: 23:35 | Sereno | 24 | 22 | 88 | 1013 | 10 | N 0 | |
| Ieri h: 23:15 | Sereno | 24 | 22 | 88 | 1013 | 10 | N 5.5 | |
| Ieri h: 22:55 | Sereno | 24 | 22 | 88 | 1013 | 10 | N 0 | |
| Ieri h: 22:35 | Sereno | 24 | 22 | 88 | 1013 | 10 | S 7.4 | |
| Ieri h: 22:15 | Sereno | 25 | 22 | 83 | 1014 | 10 | N 5.5 | |
| Ieri h: 21:55 | Sereno | 25 | 22 | 83 | 1014 | 10 | S/SO 7.4 | |
| Ieri h: 21:35 | Sereno | 25 | 22 | 83 | 1014 | 10 | N 0 | |
| Ieri h: 21:15 | Sereno | 25 | 22 | 83 | 1014 | 10 | N 5.5 | |
| Ieri h: 20:45 | Sereno | 26 | 23 | 83 | 1014 | 10 | S/SO 9.3 | |
| Ieri h: 19:45 | Molto Nuvoloso | 27 | 23 | 78 | 1013 | 10 | S/SO 11.1 | |
| Ieri h: 18:45 | Molto Nuvoloso | 28 | 23 | 74 | 1013 | 10 | S/SO 9.3 | |
| Ieri h: 17:45 | Molto Nuvoloso | 29 | 23 | 70 | 1012 | 10 | S/SO 13 | |
| Ieri h: 16:45 | Molto Nuvoloso | 30 | 23 | 66 | 1012 | 10 | SO 14.8 | |
| Ieri h: 15:45 | Molto Nuvoloso | 29 | 23 | 70 | 1012 | 10 | O/SO 22.2 | |
| Ieri h: 14:45 | Pioggia | 28 | 22 | 69 | 1012 | 10 | S 9.3 | |
| Ieri h: 13:45 | Molto Nuvoloso | 29 | 22 | 66 | 1012 | 10 | SO 20.3 | |
| Ieri h: 12:45 | Molto Nuvoloso | 29 | 22 | 66 | 1013 | 10 | SO 16.7 | |



